Вернуться в каталог

STARLINK-3852

АктивенСвязьVLEO
NORAD 52345·PAYLOAD·🇺🇸 United States

Запущен Apr 29, 2022 с Cape Canaveral Space Force Station

Loading…

Ближайшие Пролёты (ближайшие 24 часа)

TLE

СвежийSource: CelesTrak SupGP

Эпоха: Sep 14, 2026, 21:15 UTC

1 52345C 22045Q   26257.88590278  .00026818  00000+0  86242-3 0  2577
2 52345  53.1584  59.9200 0001134  78.5291 231.3485 15.31687444    13

Отслеживайте STARLINK-3852 в реальном времени с AllMySat

Download on the App Store